Home > Time Zones > World Clock > Weather > India > Thane > Past weeks

Flag for India Weather past 2 weeks in Thane, Maharashtra, India

Now
86 °F

Scattered clouds.


Feels Like: 97 °F
Forecast: 81 / 87 °F
Wind: 16 mph from West

Location: Bombay / Santacruz

Current Time: Aug 1, 2015 at 3:31:18 PM

Latest Report: Aug 1, 2015 at 2:40 PM


Visibility: 3 mi

Pressure: 29.80 "Hg

Humidity: 75%

Dew point: 77 °F

Location of ThaneLocation

Historic Weather in Thane — Graph

°F

Thane temperature yesterday

Maximum temperature yesterday: 88 °F (at 1:40 PM)
Minimum temperature yesterday: 81 °F (at 2:40 AM)
Average temperature yesterday: 84 °F

Past Weeks' High & Low Weather Summary

 TemperatureHumidityPressure
High91 °F (Jul 19, 3:40 PM)100% (Jul 21, 8:40 AM)29.83 "Hg (Jul 21, 8:40 AM)
Low77 °F (Jul 21, 8:40 AM)63% (Jul 19, 3:40 PM)29.56 "Hg (Jul 17, 3:40 PM)
Average83 °F84%29.68 "Hg
* Reported Jul 17 12:40 PM — Aug 1 1:10 PM, Thane, Weather by CustomWeather, © 2015

Note: Actual official high and low records may vary slightly from our data, if they occured in-between our weather recording intervals... More about our weather records

Advertising

Thane weather history for previous 24 hours

 ConditionsComfort  
Time TempWeatherWind HumidityBarometerVisibility
1:10 PM
Sat, Aug 1
86 °FScattered clouds.12 mph75%29.83 "Hg2 mi
12:40 PM88 °FScattered clouds.16 mph75%29.83 "Hg2 mi
12:10 PM88 °FScattered clouds.9 mph75%29.83 "Hg2 mi
11:40 AM86 °FScattered clouds.9 mph79%29.83 "Hg2 mi
10:40 AM86 °FScattered clouds.9 mph75%29.83 "Hg2 mi
9:10 AM84 °FScattered clouds.12 mph79%29.80 "Hg4 mi
8:40 AM84 °FScattered clouds.13 mph84%29.80 "Hg4 mi
8:10 AM84 °FScattered clouds.10 mph79%29.80 "Hg4 mi
7:40 AM82 °FScattered clouds.10 mph84%29.80 "Hg4 mi
7:10 AM82 °FScattered clouds.12 mph84%29.77 "Hg4 mi
6:40 AM82 °FPassing clouds.13 mph84%29.77 "Hg4 mi
5:40 AM82 °FPartly cloudy.10 mph89%29.77 "Hg2 mi
4:40 AM82 °FPartly cloudy.9 mph89%29.77 "Hg1 mi
3:40 AM82 °FPartly cloudy.10 mph84%29.77 "Hg2 mi
3:10 AM82 °FPartly cloudy.9 mph84%29.77 "Hg2 mi
2:40 AM82 °FPartly cloudy.8 mph84%29.77 "Hg2 mi
2:10 AM82 °FPartly cloudy.12 mph84%29.77 "Hg2 mi
1:40 AM82 °FPartly cloudy.13 mph84%29.77 "Hg2 mi
12:40 AM82 °FPassing clouds.9 mph84%29.80 "Hg2 mi
9:40 PM
Fri, Jul 31
84 °FPassing clouds.10 mph79%29.80 "Hg2 mi
9:10 PM84 °FPassing clouds.10 mph79%29.77 "Hg2 mi
8:40 PM84 °FPassing clouds.12 mph79%29.77 "Hg2 mi
8:10 PM82 °FPassing clouds.12 mph89%29.77 "Hg2 mi
7:40 PM84 °FScattered clouds.13 mph79%29.74 "Hg2 mi
7:10 PM84 °FScattered clouds.8 mph79%29.74 "Hg2 mi
6:40 PM84 °FScattered clouds.10 mph79%29.74 "Hg3 mi
6:10 PM84 °FScattered clouds.14 mph84%29.74 "Hg3 mi
5:40 PM84 °FScattered clouds.8 mph79%29.71 "Hg3 mi
4:40 PM86 °FScattered clouds.9 mph75%29.71 "Hg4 mi
4:10 PM86 °FBroken clouds.12 mph75%29.74 "Hg4 mi
3:40 PM86 °FBroken clouds.12 mph75%29.74 "Hg4 mi
3:10 PM86 °FBroken clouds.12 mph75%29.74 "Hg4 mi
Weather by CustomWeather, © 2015

See weather overviewHow to use our weather pages